DW7783 Weather Reports


Display with metric or nautical units.
time (UTC)temp
F
wind
direction
speed
MPH
gust
MPH
rain 1hr
in
rain 24hr
in
rain mn
in
humidity
%
barometer
mb
20180426075132 64 37 4.0 0.0 0.00 0.00 0.00 61 1010.7
20180426073629 63 327 4.0 0.0 0.00 0.00 0.00 61 1010.7
20180426072129 63 33 3.0 0.0 0.00 0.00 0.00 61 1010.5
20180426070626 62 34 2.0 0.0 0.00 0.00 0.00 63 1010.4
20180426065125 59 69 2.0 0.0 0.00 0.00 0.00 68 1010.7
20180426063621 57 32 2.0 0.0 0.00 0.00 0.00 72 1011.1
20180426062119 55 54 0.0 0.0 0.00 0.00 0.00 74 1010.9
20180426060613 55 54 0.0 0.0 0.00 0.00 0.00 75 1010.7
20180426055110 54 54 1.0 0.0 0.00 0.00 0.00 77 1010.7
20180426053608 53 54 1.0 0.0 0.00 0.00 0.00 78 1010.3
20180426052107 53 52 2.0 0.0 0.00 0.00 0.00 77 1010.3
20180426050606 54 52 3.0 0.0 0.00 0.00 0.00 76 1010.1
20180426045107 53 58 1.0 0.0 0.00 0.00 0.00 78 1010.1
20180426043608 53 46 1.0 0.0 0.00 0.00 0.00 79 1010.0
20180426042104 52 50 1.0 0.0 0.00 0.00 0.00 79 1010.2
20180426040603 53 50 0.0 0.0 0.00 0.00 0.00 78 1010.0
20180426035101 53 50 1.0 0.0 0.00 0.00 0.00 77 1010.0
20180426033601 54 53 1.0 0.0 0.00 0.00 0.00 75 1009.8
20180426032058 54 45 0.0 0.0 0.00 0.00 0.00 74 1009.6
20180426030601 55 46 1.0 0.0 0.00 0.00 0.00 73 1010.1
20180426025054 55 60 1.0 0.0 0.00 0.00 0.00 72 1009.9
20180426023552 55 314 1.0 0.0 0.00 0.00 0.00 72 1009.9
20180426022051 56 304 0.0 0.0 0.00 0.00 0.00 70 1010.0
20180426020550 57 304 1.0 0.0 0.00 0.00 0.00 68 1009.8
20180426015048 57 87 0.0 0.0 0.00 0.00 0.00 68 1009.9
20180426013547 57 83 0.0 0.0 0.00 0.00 0.00 66 1009.9
20180426012046 57 181 0.0 0.0 0.00 0.00 0.00 68 1009.9
20180426010551 57 7 1.0 0.0 0.00 0.00 0.00 67 1009.9
20180426005046 57 61 0.0 0.0 0.00 0.00 0.00 67 1010.0
20180426003545 57 62 1.0 0.0 0.00 0.00 0.00 67 1010.3
20180426002042 56 87 0.0 0.0 0.00 0.00 0.00 69 1010.4
20180426000540 57 87 0.0 0.0 0.00 0.00 0.00 67 1010.5
20180425235039 57 87 0.0 0.0 0.00 0.00 0.00 67 1010.5
20180425233541 58 87 0.0 0.0 0.00 0.00 0.00 66 1010.6
20180425232037 57 87 0.0 0.0 0.00 0.00 0.00 67 1010.8
20180425230536 58 87 0.0 0.0 0.00 0.00 0.00 66 1011.0
20180425225038 58 87 1.0 0.0 0.00 0.00 0.00 66 1011.1
20180425223534 58 42 1.0 0.0 0.00 0.00 0.00 63 1010.8
20180425222036 59 40 1.0 0.0 0.00 0.00 0.00 62 1010.9
20180425220530 57 46 2.0 0.0 0.00 0.00 0.00 66 1011.3
20180425215027 57 48 3.0 0.0 0.00 0.00 0.00 65 1011.2
20180425213529 58 60 2.0 0.0 0.00 0.00 0.00 65 1011.2
20180425212027 59 43 2.0 0.0 0.00 0.00 0.00 61 1011.2
20180425210526 59 50 2.0 0.0 0.00 0.00 0.00 61 1011.2
20180425205027 59 52 2.0 0.0 0.00 0.00 0.00 60 1011.0
20180425203528 60 50 2.0 0.0 0.00 0.00 0.00 59 1010.7
20180425202025 60 50 1.0 0.0 0.00 0.00 0.00 58 1010.8
20180425200525 61 58 3.0 0.0 0.00 0.00 0.00 54 1010.9
20180425195025 62 17 2.0 0.0 0.00 0.00 0.00 54 1010.8
20180425193522 62 7 2.0 0.0 0.00 0.00 0.00 54 1010.3
20180425192022 62 330 2.0 0.0 0.00 0.00 0.00 54 1010.1
20180425190525 63 2 4.0 0.0 0.00 0.00 0.00 52 1010.1
20180425185024 63 17 6.0 0.0 0.00 0.00 0.00 50 1010.0
20180425183524 63 358 5.0 0.0 0.00 0.00 0.00 50 1010.0
20180425182025 64 41 6.0 0.0 0.00 0.00 0.00 48 1009.6
20180425180520 64 21 6.0 0.0 0.00 0.00 0.00 47 1009.5
20180425175024 65 12 6.0 0.0 0.00 0.00 0.00 45 1009.0
20180425173523 66 27 5.0 0.0 0.00 0.00 0.00 45 1009.2
20180425172022 65 40 5.0 0.0 0.00 0.00 0.00 45 1009.3
20180425170519 65 86 6.0 0.0 0.00 0.00 0.00 46 1009.2
20180425165017 66 42 7.0 0.0 0.00 0.00 0.00 45 1009.2
20180425163517 66 66 6.0 0.0 0.00 0.00 0.00 46 1008.8
20180425162023 66 73 9.0 0.0 0.00 0.00 0.00 44 1008.5
20180425160522 66 62 6.0 0.0 0.00 0.00 0.00 44 1008.7
20180425155015 66 36 9.0 0.0 0.00 0.00 0.00 44 1008.6
20180425153515 66 38 8.0 0.0 0.00 0.00 0.00 46 1008.9
20180425152014 66 50 6.0 0.0 0.00 0.00 0.00 46 1008.5
20180425150516 66 34 7.0 0.0 0.00 0.00 0.00 46 1008.8
20180425145017 66 61 9.0 0.0 0.00 0.00 0.00 44 1008.8
20180425143517 66 68 8.0 0.0 0.00 0.00 0.00 44 1008.6
20180425142019 67 37 6.0 0.0 0.00 0.00 0.00 44 1008.9
20180425140513 67 42 5.0 0.0 0.00 0.00 0.00 45 1008.9
20180425135014 66 42 5.0 0.0 0.00 0.00 0.00 44 1009.1
20180425133514 67 95 5.0 0.0 0.00 0.00 0.00 45 1009.0
20180425132015 66 55 6.0 0.0 0.00 0.00 0.00 46 1009.2
20180425130511 66 46 6.0 0.0 0.00 0.00 0.00 46 1009.0
20180425125010 66 55 7.0 0.0 0.00 0.00 0.00 45 1009.0
20180425123509 66 68 7.0 0.0 0.00 0.00 0.00 45 1009.1
20180425122009 67 92 7.0 0.0 0.00 0.00 0.00 43 1008.9
20180425120507 66 49 7.0 0.0 0.00 0.00 0.00 44 1009.5
20180425115005 65 58 8.0 0.0 0.00 0.00 0.00 47 1009.5
20180425113507 64 63 7.0 0.0 0.00 0.00 0.00 49 1009.4
20180425112005 64 44 9.0 0.0 0.00 0.00 0.00 50 1009.0
20180425110506 65 61 9.0 0.0 0.00 0.00 0.00 49 1009.2
20180425105004 63 35 6.0 0.0 0.00 0.00 0.00 55 1009.6
20180425103504 62 37 7.0 0.0 0.00 0.00 0.00 57 1009.8
20180425102004 61 41 8.0 0.0 0.00 0.00 0.00 58 1009.8
20180425100503 61 38 7.0 0.0 0.00 0.00 0.00 59 1009.8
20180425095005 63 104 5.0 0.0 0.00 0.00 0.00 58 1009.6
20180425093502 65 38 5.0 0.0 0.00 0.00 0.00 52 1009.1
20180425092000 65 40 3.0 0.0 0.00 0.00 0.00 58 1009.4
20180425090500 62 31 2.0 0.0 0.00 0.00 0.00 59 1009.6
20180425084957 60 132 0.0 0.0 0.00 0.00 0.00 62 1009.8
20180425083452 58 130 0.0 0.0 0.00 0.00 0.00 73 1009.9
20180425081950 57 266 1.0 0.0 0.00 0.00 0.00 73 1010.1
20180425080443 57 25 0.0 0.0 0.00 0.00 0.00 68 1009.8